Regional Weather Roundup
Issued by NWS

Home | Current Version | Previous Version | Text Only | Print | Product List | Glossary Off
Versions: 1 2 3 4 5 6 7 8 9 10 11 12 13 14 15 16 17 18 19 20 21 22 23 24 25 26 27 28 29 30 31 32 33 34 35 36 37 38 39 40 41 42 43 44 45 46 47 48 49 50

000
ASUS45 KCYS 291610
RWRWY

WYOMING REGIONAL WEATHER ROUNDUP
NATIONAL WEATHER SERVICE CHEYENNE WY
1000 AM MDT TUE JUL 29 2014

NOTE:  "FAIR" INDICATES FEW OR NO CLOUDS BELOW 12,000 FEET
WITH NO SIGNIFICANT WEATHER AND/OR OBSTRUCTIONS TO VISIBILITY.

WYZ001-291700-
YELLOWSTONE NATIONAL PARK

CITY           SKY/WX    TMP DP  RH WIND       PRES   REMARKS
LK YELLOWSTONE   N/A     58  46  64 CALM      30.47S
W YELLOWSTONE  NOT AVBL

$$
WYZ002>013-054>058-071-098>099-291700-
NORTHERN WYOMING

CITY           SKY/WX    TMP DP  RH WIND       PRES   REMARKS
JACKSON        CLOUDY    66  48  52 N14       30.33S
CODY           NOT AVBL
GREYBULL       CLOUDY    78  51  38 SW3       30.22R
WORLAND        CLOUDY    72  53  51 SE21      30.25R
SHERIDAN       CLOUDY    68  59  73 S3        30.27S
BUFFALO        LGT RAIN  68  54  60 SW5       30.35F
GILLETTE       LGT RAIN  63  58  83 W9        30.31F
HULETT         PTSUNNY   63  55  77 MISG      30.30
NEWCASTLE      PTSUNNY   61  59  94 W5        30.32

$$
WYZ014>020-022>026-101>103-291700-
CENTRAL WYOMING

CITY           SKY/WX    TMP DP  RH WIND       PRES   REMARKS
BIG PINEY      CLOUDY    65  45  48 SE6       30.38S
PINEDALE       RAIN      63  46  55 S8        30.38S
DUBOIS         DRIZZLE   57  48  72 SE10      30.42S
LANDER         CLOUDY    65  51  60 NE9       30.34R
RIVERTON       RAIN      61  55  81 NW8       30.36R
CASPER         PTSUNNY   67  53  61 E15G21    30.32F
DOUGLAS        MOSUNNY   71  53  52 SE8       30.31F

$$
WYZ021-027>030-104>119-291700-
SOUTHERN WYOMING

CITY           SKY/WX    TMP DP  RH WIND       PRES   REMARKS
EVANSTON       LGT RAIN  59  56  89 N5        30.37S
FORT BRIDGER   CLOUDY    64  54  69 W13       30.38S
ROCK SPRINGS   CLOUDY    64  51  62 NE13      30.35S
DIXON          CLOUDY    69  53  55 SW9       30.37S
RAWLINS        PTSUNNY   71  49  45 NE7       30.35F
SARATOGA       PTSUNNY   68  50  52 N5        30.37S
LARAMIE        MOSUNNY   71  51  49 NE6       30.37S
CHEYENNE       PTSUNNY   73  58  59 E9        30.32S
TORRINGTON     CLOUDY    65  57  75 E7        30.27S
PINE BLUFFS    FAIR      72  59  64 NE7       30.29S

$$



USA.gov is the U.S. government's official web portal to all federal, state and local government web resources and services.